Tracking 19576 objects as of 17-Feb-2019
HD Live streaming from Space Station
objects crossing your sky now

FAST

Track FAST now!
10-day predictions
FAST is classified as:


NORAD ID: 24285
Int'l Code: 1996-049A
Perigee: 353.4 km
Apogee: 3,449.4 km
Inclination: 83.0 °
Period: 124.8 minutes
Semi major axis: 8272 km
RCS: 1.3393 m2 (large)
Launch date: August 21, 1996
Source: United States (US)
Launch site: AIR FORCE WESTERN TEST RANGE (AFWTR)

Designed to study Earth's aurora.
aabbcc
Your satellite tracking list
Your tracking list is empty




NASA's NSSDC Master Catalog

Two Line Element Set (TLE):
1 24285U 96049A   19047.95797903 +.00000555 +00000-0 +40887-4 0  9995
2 24285 082.9597 038.5284 1871315 127.7999 250.7790 11.53872542921205
Source of the keplerian elements: AFSPC